Weather Roundup
Issued by NWS Chicago, IL

Home | Current Version | Previous Version | Text Only | Print | Product List | Glossary Off
Versions: 1 2 3 4 5 6 7 8 9 10 11 12 13 14 15 16 17 18 19 20 21 22 23 24 25 26 27 28 29 30 31 32 33 34 35 36 37 38 39 40 41 42 43 44 45 46 47 48 49 50

000
NZUS59 KLOT 271203
HRRLOT

CHICAGO AREA WEATHER ROUNDUP
NATIONAL WEATHER SERVICE CHICAGO/ROMEOVILLE IL
700 AM CDT MON MAR 27 2017

NOTE: "FAIR" INDICATES FEW OR NO CLOUDS BELOW 12,000 FEET WITH NO
SIGNIFICANT WEATHER AND/OR OBSTRUCTIONS TO VISIBILITY.

* THESE STATIONS ARE NOT UNDER NWS QUALITY CONTROL. THEY ALSO MAY NOT
  REPORT WEATHER SUCH AS PRECIPITATION OR FOG.

ILZ005-006-012>014-019>023-271300-
NORTHEAST ILLINOIS

CITY           SKY/WX    TMP DP  RH WIND       PRES   REMARKS
OHARE          CLOUDY    49  47  93 W3        29.92R FOG
6HR MIN TEMP:  49; 6HR MAX TEMP:  52; 6HR PCP: TRACE;

MIDWAY         DRIZZLE   50  48  93 SW7       29.93R FOG
6HR MIN TEMP:  50; 6HR MAX TEMP:  51; 6HR PCP: TRACE;

AURORA         FOG       48  47  96 NW3       29.92R VSB 1/2
6HR MIN TEMP:  48; 6HR MAX TEMP:  51;

LANSING*       CLOUDY    48  48 100 W6        29.94R FOG
JOLIET*        CLOUDY    50  49  97 CALM      29.94R FOG
WAUKEGAN       CLOUDY    44  43  96 CALM      29.92R
6HR MIN TEMP:  43; 6HR MAX TEMP:  45;

DUPAGE AIRPORT CLOUDY    48  48 100 W5        29.91R FOG
6HR MIN TEMP:  48; 6HR MAX TEMP:  51; 6HR PCP: TRACE;

WHEELING       CLOUDY    46  46 100 NW3       29.93R
6HR MIN TEMP:  46; 6HR MAX TEMP:  51; 6HR PCP: TRACE;

MORRIS*        CLOUDY    48  47  96 CALM      29.93R FOG
$$

WIZ051-052-058>065-066-070>072-271300-
SOUTHEAST WISCONSIN

CITY           SKY/WX    TMP DP  RH WIND       PRES   REMARKS
MILWAUKEE      CLOUDY    43  39  86 NW6       29.92R
6HR MIN TEMP:  43; 6HR MAX TEMP:  44; 6HR PCP: TRACE;

KENOSHA*       CLOUDY    43  40  89 W5        29.93R
RACINE*        CLOUDY    42  39  89 CALM      29.94R
WAUKESHA       CLOUDY    37  37 100 N3        29.92R
$$

INZ001>003-010>013-019-020-271300-
NORTHWEST INDIANA

CITY           SKY/WX    TMP DP  RH WIND       PRES   REMARKS
GARY*          CLOUDY    50  48  93 SW6       29.94R FOG
MICHIGAN CITY* NOT AVBL
RENSSELAER*    NOT AVBL
VALPARAISO     CLOUDY    50  49  96 W6        29.95R FOG
$$

LMZ740>746-271300-
SOUTHERN LAKE MICHIGAN

STATION/POSITION TIME  SKY/WX   TEMP WIND        PRES    VSBY
                                AIR  DIR/SP/G
                 (UTC)          (F)  (DEG/KT/KT) (MB)    (MI)
HARRISON CRIB    1140            40   20/  2/  3   N/A
BURNHAM HARBOR   1200            41  350/  2/  3   N/A
CALUMET HARBOR   1130            49  220/  4/  7 1012.6R
BURNS HARBOR     1140            47  230/  6/  8 1014.2R
MICHIGAN CITY    1140            44  220/ 10/ 11   N/A
$$

ABBREVIATIONS USED IN REMARKS
   TC - TEMPERATURE IN CELSIUS
  WCI - WIND CHILL INDEX
   HX - HEAT INDEX
  VSB - VISIBILITY
$$



USA.gov is the U.S. government's official web portal to all federal, state and local government web resources and services.